Stanley, ND

2:31 PM CST on February 24, 2018 (GMT -0600)
Stanley

Weather History for K08D - December, 2011

Change the Weather History Date:

Friday, December 30, 2011

  Actual Average (KMIB) Record (KMIB)
Temperature  
Mean Temperature 28 °F -  
Max Temperature 32 °F 17 °F 36 °F (2011)
Min Temperature 24 °F 1 °F -31 °F (2017)
Degree Days  
Heating Degree Days 37    
Moisture  
Dew Point 29 °F    
Average Humidity 99    
Maximum Humidity 100    
Minimum Humidity 93    
Precipitation  
Precipitation 0.21 in - - ()
Sea Level Pressure  
Sea Level Pressure 29.63 in    
Wind  
Wind Speed 15 mph (WSW)    
Max Wind Speed 24 mph    
Max Gust Speed 32 mph    
Visibility 7 miles    
Events Fog , Rain , Snow    
Averages and records for this station are not official NWS values.
T = Trace of Precipitation, MM = Missing Value Source: NWS Daily Summary

Daily Weather History Graph

Daily Weather History Graph

Search for Another Location

Airport or City:

Trip Planner

Search our weather history database for the weather conditions in past years. The results will help you decide how hot, cold, wet, or windy it might be!

Date:

Astronomy

Dec. 30, 2011 Rise Set
Actual Time 8:40 AM CST 5:03 PM CST
Civil Twilight 8:04 AM CST 5:40 PM CST
Nautical Twilight 7:24 AM CST 6:20 PM CST
Astronomical Twilight 6:46 AM CST 6:58 PM CST
Moon 11:29 AM CST (12/30) No Moon Set
Length of Visible Light 9h 36m
Length of Day
8h 23m
Waxing Crescent, 36% of the Moon is Illuminated
Dec 30
Waxing Crescent
Jan 1
First Quarter
Jan 9
Full
Jan 16
Last Quarter
Jan 23
New

Hourly Weather History & Observations

Time (CST) Temp. Windchill Dew Point Humidity Pressure Visibility Wind Dir Wind Speed Gust Speed Precip Events Conditions
12:15 AM 30.2 °F 17.1 °F 30.2 °F 100% 29.50 in 2.5 mi NW 21.9 mph 31.1 mph 0.20 in Snow Light Snow
12:35 AM 30.2 °F 16.8 °F 28.4 °F 93% 29.51 in 10.0 mi NW 23.0 mph 32.2 mph 0.21 in Snow Light Snow
12:55 AM 28.4 °F 15.1 °F 28.4 °F 100% 29.52 in 10.0 mi NW 20.7 mph 29.9 mph 0.21 in Rain Light Freezing Rain
1:15 AM 28.4 °F 14.1 °F 28.4 °F 100% 29.53 in 10.0 mi NW 24.2 mph 29.9 mph N/A   Overcast
1:35 AM 28.4 °F 15.4 °F 28.4 °F 100% 29.55 in 10.0 mi NW 19.6 mph 31.1 mph N/A   Overcast
1:55 AM 28.4 °F 14.7 °F 26.6 °F 93% 29.57 in 10.0 mi NNW 21.9 mph 31.1 mph N/A   Overcast
2:35 AM 26.6 °F 12.4 °F 26.6 °F 100% 29.61 in 10.0 mi NW 21.9 mph 29.9 mph N/A   Overcast
3:15 AM 26.6 °F 13.4 °F 24.8 °F 93% 29.66 in 10.0 mi NW 18.4 mph 26.5 mph N/A   Overcast
3:55 AM 24.8 °F 10.7 °F 23.0 °F 93% 29.67 in 10.0 mi NNW 19.6 mph 27.6 mph N/A   Overcast
4:15 AM 24.8 °F 12.9 °F 23.0 °F 93% 29.68 in 10.0 mi NNW 13.8 mph 24.2 mph N/A   Overcast
4:35 AM 24.8 °F 11.9 °F 24.8 °F 100% 29.70 in 10.0 mi NW 16.1 mph 25.3 mph N/A   Overcast
4:55 AM 24.8 °F 11.5 °F 24.8 °F 100% 29.70 in 10.0 mi NW 17.3 mph 28.8 mph N/A   Overcast
5:15 AM 24.8 °F 10.7 °F 24.8 °F 100% 29.70 in 10.0 mi NW 19.6 mph 25.3 mph N/A   Overcast
5:35 AM 24.8 °F 11.9 °F 24.8 °F 100% 29.70 in 10.0 mi NNW 16.1 mph 21.9 mph N/A   Overcast
6:15 AM 26.6 °F 17.5 °F 26.6 °F 100% 29.72 in 1.0 mi NW 9.2 mph 17.3 mph N/A   Overcast
6:35 AM 26.6 °F 17.5 °F 26.6 °F 100% 29.73 in 1.2 mi NNW 9.2 mph 19.6 mph N/A   Overcast
6:55 AM 26.6 °F 15.7 °F 26.6 °F 100% 29.72 in 2.5 mi NW 12.7 mph - N/A   Overcast
7:15 AM 26.6 °F 16.8 °F 26.6 °F 100% 29.72 in 3.0 mi NNW 10.4 mph 16.1 mph N/A   Overcast
7:35 AM 26.6 °F 15.7 °F 26.6 °F 100% 29.72 in 5.0 mi NW 12.7 mph 17.3 mph N/A   Overcast
7:55 AM 26.6 °F 15.7 °F 26.6 °F 100% 29.73 in 3.0 mi NW 12.7 mph 16.1 mph N/A   Overcast
8:15 AM 26.6 °F 16.8 °F 26.6 °F 100% 29.72 in 3.0 mi NNW 10.4 mph - N/A   Overcast
8:35 AM 26.6 °F 17.5 °F 26.6 °F 100% 29.72 in 1.5 mi NNW 9.2 mph - N/A   Overcast
8:55 AM 26.6 °F 22.6 °F 26.6 °F 100% 29.73 in 1.5 mi NW 3.5 mph - N/A   Overcast
9:15 AM 26.6 °F 20.0 °F 26.6 °F 100% 29.73 in 0.8 mi NW 5.8 mph - N/A   Overcast
9:35 AM 26.6 °F 20.0 °F 26.6 °F 100% 29.73 in 0.8 mi WNW 5.8 mph - N/A   Overcast
9:55 AM 26.6 °F 18.2 °F 26.6 °F 100% 29.73 in 0.5 mi West 8.1 mph - N/A Fog Light Freezing Fog
10:15 AM 26.6 °F 18.2 °F 26.6 °F 100% 29.73 in 0.5 mi West 8.1 mph - N/A Fog Light Freezing Fog
10:35 AM 26.6 °F 21.2 °F 26.6 °F 100% 29.73 in 1.5 mi WNW 4.6 mph - N/A   Overcast
10:55 AM 28.4 °F 22.2 °F 28.4 °F 100% 29.72 in 1.2 mi West 5.8 mph - N/A   Overcast
11:15 AM 28.4 °F 21.2 °F 28.4 °F 100% 29.72 in 3.0 mi SSW 6.9 mph - N/A   Overcast
11:35 AM 28.4 °F 21.2 °F 28.4 °F 100% 29.71 in 2.5 mi WSW 6.9 mph - N/A   Overcast
12:15 PM 28.4 °F 21.2 °F 28.4 °F 100% 29.69 in 2.5 mi SW 6.9 mph - N/A   Overcast
12:35 PM 28.4 °F 19.7 °F 28.4 °F 100% 29.68 in 2.0 mi SSW 9.2 mph - N/A   Overcast
12:55 PM 28.4 °F 21.2 °F 28.4 °F 100% 29.66 in 9.0 mi SSW 6.9 mph - N/A   Overcast
1:15 PM 28.4 °F 19.7 °F 28.4 °F 100% 29.66 in 10.0 mi SSW 9.2 mph - N/A   Overcast
1:35 PM 28.4 °F 21.2 °F 28.4 °F 100% 29.66 in 10.0 mi SSW 6.9 mph - N/A   Overcast
1:55 PM 30.2 °F 23.4 °F 30.2 °F 100% 29.65 in 10.0 mi South 6.9 mph - N/A   Overcast
2:15 PM 30.2 °F 23.4 °F 30.2 °F 100% 29.64 in 10.0 mi South 6.9 mph - N/A   Overcast
2:35 PM 30.2 °F 21.9 °F 30.2 °F 100% 29.61 in 10.0 mi South 9.2 mph - N/A   Overcast
2:55 PM 32.0 °F 22.1 °F 32.0 °F 100% 29.61 in 10.0 mi SSE 13.8 mph - N/A   Overcast
3:15 PM 32.0 °F 23.0 °F 32.0 °F 100% 29.62 in 10.0 mi South 11.5 mph - N/A   Overcast
3:35 PM 32.0 °F 23.6 °F 32.0 °F 100% 29.61 in 10.0 mi South 10.4 mph - N/A   Overcast
3:55 PM 32.0 °F 23.0 °F 32.0 °F 100% 29.60 in 5.0 mi South 11.5 mph - N/A   Overcast
4:15 PM 32.0 °F 23.0 °F 32.0 °F 100% 29.60 in 1.8 mi South 11.5 mph - N/A   Overcast
4:35 PM 32.0 °F 23.0 °F 32.0 °F 100% 29.60 in 4.0 mi South 11.5 mph - N/A   Overcast
4:55 PM 32.0 °F 22.1 °F 32.0 °F 100% 29.58 in 5.0 mi South 13.8 mph - N/A   Overcast
5:15 PM 32.0 °F 24.2 °F 32.0 °F 100% 29.58 in 5.0 mi South 9.2 mph - N/A   Overcast
5:35 PM 32.0 °F 24.2 °F 32.0 °F 100% 29.58 in 10.0 mi South 9.2 mph - N/A   Overcast
5:55 PM 32.0 °F 23.6 °F 32.0 °F 100% 29.57 in 10.0 mi South 10.4 mph - N/A   Overcast
6:15 PM 32.0 °F 25.6 °F 32.0 °F 100% 29.55 in 10.0 mi SSE 6.9 mph - N/A   Overcast
6:35 PM 32.0 °F 23.0 °F 32.0 °F 100% 29.53 in 10.0 mi South 11.5 mph 16.1 mph N/A   Overcast
6:55 PM 32.0 °F 22.5 °F 32.0 °F 100% 29.52 in 10.0 mi South 12.7 mph 17.3 mph N/A   Overcast
7:15 PM 32.0 °F 23.0 °F 32.0 °F 100% 29.51 in 10.0 mi South 11.5 mph 18.4 mph N/A   Overcast
7:35 PM 32.0 °F 23.0 °F 32.0 °F 100% 29.51 in 10.0 mi South 11.5 mph - N/A   Mostly Cloudy
7:55 PM 32.0 °F 20.8 °F 32.0 °F 100% 29.51 in 10.0 mi South 17.3 mph 20.7 mph N/A   Overcast
8:15 PM 32.0 °F 22.1 °F 32.0 °F 100% 29.51 in 10.0 mi South 13.8 mph 19.6 mph N/A   Overcast
8:35 PM 32.0 °F 22.1 °F 32.0 °F 100% 29.50 in 10.0 mi South 13.8 mph - N/A   Overcast
8:55 PM 32.0 °F 23.0 °F 32.0 °F 100% 29.49 in 10.0 mi South 11.5 mph - N/A   Overcast
9:15 PM 32.0 °F 22.1 °F 32.0 °F 100% 29.47 in 10.0 mi South 13.8 mph - N/A   Overcast
9:35 PM 32.0 °F 23.0 °F 32.0 °F 100% 29.45 in 10.0 mi South 11.5 mph 19.6 mph N/A   Overcast
9:55 PM 32.0 °F 20.8 °F 32.0 °F 100% 29.42 in 10.0 mi South 17.3 mph 25.3 mph N/A   Overcast
10:15 PM 32.0 °F 22.1 °F 32.0 °F 100% 29.45 in 10.0 mi SSW 13.8 mph - N/A   Overcast
10:35 PM 33.8 °F 24.8 °F 32.0 °F 93% 29.44 in 10.0 mi SSW 12.7 mph 19.6 mph N/A   Overcast
10:55 PM 33.8 °F 25.3 °F 32.0 °F 93% 29.44 in 10.0 mi SSW 11.5 mph - N/A   Overcast
11:15 PM 33.8 °F 24.3 °F 32.0 °F 93% 29.43 in 9.0 mi South 13.8 mph - N/A   Mostly Cloudy
11:35 PM 35.6 °F 27.5 °F 32.0 °F 87% 29.44 in 10.0 mi South 11.5 mph - N/A Rain Light Rain
11:55 PM 35.6 °F 28.6 °F 32.0 °F 87% 29.43 in 10.0 mi South 9.2 mph - N/A   Overcast